Tracking 29747 objects as of 9-Oct-2024
HD Live streaming from Space Station
objects crossing your sky now

STARLINK-1190

Track STARLINK-1190 now!
10-day predictions
STARLINK-1190 is classified as:


NORAD ID: 45083
Int'l Code: 2020-006AR
Perigee: 553.4 km
Apogee: 555.5 km
Inclination: 53.1 °
Period: 95.6 minutes
Semi major axis: 6925 km
RCS: Unknown
Launch date: January 29, 2020
Source: United States (US)
Launch site: AIR FORCE EASTERN TEST RANGE (AFETR)
Your satellite tracking list
Your tracking list is empty




NASA's NSSDC Master Catalog

Two Line Element Set (TLE):
1 45083U 20006AR  24283.46889724 -.00004103  00000-0 -25695-3 0  9995
2 45083  53.0516  84.0187 0001471 101.4831 258.6323 15.06369872258653
Source of the keplerian elements: AFSPC